Location: Demmingen
(48.6757°N, 10.4375°E)
Time: 22:45:10
(UTC+00:00)

Cosmos 2278 - Pass Details

Date: 23 May 2024
Orbit: 837 x 853 km, 71.1° (Epoch: 14 June)

Event Time Altitude Azimuth Distance (km) Brightness Sun altitude
Rises 00:33:25 0° 332° (NNW) 3,432 7.5 -18.5°
Reaches altitude 10° 00:35:53 10° 333° (NNW) 2,493 6.7 -18.4°
Maximum altitude 00:41:38 82° 61° (ENE) 869 3.8 -18.0°
Enters shadow 00:46:54 12° 150° (SSE) 2,314 5.6 -17.7°
